千帆星座-35 (QIANFAN-35)

导读

QIANFAN-35 是中国“北斗”卫星导航系统的重要组成部分,于2023年成功发射。该卫星采用先进技术和高精度原子钟,提升了全球定位、导航和授时服务的稳定性和准确性。QIANFAN-35 的成功部署进一步增强了北斗系统的全球覆盖能力,为交通运输、气象预报、灾害预警等多个领域提供可靠支持,标志着中国在卫星导航技术领域的持续进步和自主创新能力的提升。

Basic Information
目录编号:
61568
目录名称:
QIANFAN-35
国际标识:
2024-185S
轨道中心:
EARTH
卫星名称:
千帆星座-35
卫星全名:
千帆星座-35 (QIANFAN-35)
卫星状态:
在轨 (已飞行606 天)
发射日期:
2024-10-15 UTC
国别 :
中国 (CN)
星等 :
--
Orbit Information
数据来源 国际轨道数据 AOE轨道数据
星历时间 2026-06-13T03:12:32+0800
6小时前
查看轨道信息
2026-06-13T00:00:00+0800
10小时前
查看轨道信息
半长轴 7175.673km 7175.675km
偏心率 0.0008512 0.0008394
轨道倾角 88.983° 88.983°
近地点辐角 57.063° 58.919°
升交点赤经 55.506° 55.522°
平近点角 303.138° 334.267°
近地点 791.428km 791.514km
远地点 803.644km 803.562km
周期 100.822分钟 100.822分钟
每日圈数 14.282652 14.282646
Detailed Information
卫星平台:
35
覆盖范围:
全球
运营商:
上海垣信卫星科技有限公司
运营商所在国:
中国
使用方式:
暂无
Satellite Introduction
千帆星座,也被称为“G60星链”计划,是中国版“星链”的重要组成部分,旨在打造一个由1.4万多颗低轨宽频多媒体卫星构成的庞大星座。千帆星座计划由上海垣信卫星科技有限公司负责实施,于2023年启动建设。该项目是我国第二个低轨卫星大星座,旨在通过构建庞大的卫星网络,为全球用户提供高质量的通信和宽带互联网服务。
2D Orbit Map
3D Orbit Map
Orbit Altitude Analysis Chart
Orbit Inclination Analysis Chart
Orbit Comprehensive Analysis Chart
View Comprehensive Chart